Tracking 25193 objects as of 17-Jan-2022
HD Live streaming from Space Station
objects crossing your sky now

STTW-T2

Track STTW-T2 now!
STTW-T2 is classified as:


NORAD ID: 14899
Int'l Code: 1984-035A
Perigee: 35,727.3 km
Apogee: 35,807.7 km
Inclination: 12.2 °
Period: 1,434.8 minutes
Semi major axis: 42138 km
RCS: 3.981 m2 (large)
Launch date: April 8, 1984
Source: People's Republic of China (PRC)
Launch site: Xichang Space Center, China (XSC)
aabbcc
Your satellite tracking list
Your tracking list is empty




NASA's NSSDC Master Catalog

Two Line Element Set (TLE):
1 14899U 84035A   22016.90721434  .00000124  00000-0  00000-0 0  9999
2 14899  12.1968 329.8955 0009545 137.1723  20.6641  1.00365514 31208
Source of the keplerian elements: AFSPC